DO3HUM-5 Weather Reports


Display with metric or nautical units.
time (UTC)temp
F
wind
direction
speed
MPH
gust
MPH
rain 1hr
in
rain 24hr
in
rain mn
in
humidity
%
barometer
mb
20260503173610 75 307 1.0 4.0 0.00 0.00 0.00 40 1017.6
20260503172607 76 322 2.0 4.0 0.00 0.00 0.00 41 1017.6
20260503171602 76 252 3.0 7.0 0.00 0.00 0.00 41 1017.5
20260503170600 77 287 1.0 9.0 0.00 0.00 0.00 40 1017.5
20260503150527 81 274 2.0 4.0 0.00 0.00 0.00 36 1017.8
20260503130553 81 261 1.0 4.0 0.00 0.00 0.00 37 1019.4
20260503110613 82 170 2.0 6.0 0.00 0.00 0.00 38 1020.2
20260503081525 75 72 1.0 4.0 0.00 0.00 0.00 46 1021.2
20260503080519 72 285 0.0 4.0 0.00 0.00 0.00 51 1021.2
20260503072606 68 270 1.0 4.0 0.00 0.00 0.00 54 1021.3
20260503071603 67 256 0.0 4.0 0.00 0.00 0.00 56 1021.3
20260503070600 65 284 1.0 2.0 0.00 0.00 0.00 54 1021.4
20260503054522 58 0.0 0.0 0.00 0.00 0.00 63 1021.4
20260503053518 57 0.0 0.0 0.00 0.00 0.00 64 1021.4
20260503052609 55 0.0 0.0 0.00 0.00 0.00 66 1021.3
20260503051607 52 0.0 0.0 0.00 0.00 0.00 74 1021.4
20260503050559 51 0.0 0.0 0.00 0.00 0.00 77 1021.4
20260503045555 49 0.0 0.0 0.00 0.00 0.00 80 1021.4
20260503044548 48 0.0 0.0 0.00 0.00 0.00 82 1021.4
20260503043546 48 0.0 0.0 0.00 0.00 0.00 81 1021.3
20260503042541 48 0.0 0.0 0.00 0.00 0.00 80 1021.4
20260503041532 47 0.0 0.0 0.00 0.00 0.00 83 1021.4
20260503040531 47 0.0 0.0 0.00 0.00 0.00 83 1021.2
20260503035522 48 0.0 0.0 0.00 0.00 0.00 82 1021.2
20260503034520 48 0.0 0.0 0.00 0.00 0.00 83 1021.3
20260503033613 48 0.0 0.0 0.00 0.00 0.00 84 1021.1
20260503032608 48 0.0 0.0 0.00 0.00 0.00 81 1021.1
20260503031605 48 0.0 0.0 0.00 0.00 0.00 81 1021.2
20260503030558 48 0.0 0.0 0.00 0.00 0.00 81 1021.3
20260503025554 49 0.0 0.0 0.00 0.00 0.00 81 1021.5
20260503024543 47 0.0 0.0 0.00 0.00 0.00 84 1021.4
20260503023535 48 0.0 0.0 0.00 0.00 0.00 83 1021.4
20260503022532 47 0.0 0.0 0.00 0.00 0.00 83 1021.5
20260503021529 48 0.0 0.0 0.00 0.00 0.00 83 1021.5
20260503020523 48 0.0 0.0 0.00 0.00 0.00 83 1021.5
20260503015520 48 0.0 0.0 0.00 0.00 0.00 82 1021.5
20260503014610 48 0.0 0.0 0.00 0.00 0.00 83 1021.4
20260503013607 48 0.0 0.0 0.00 0.00 0.00 84 1021.4
20260503012559 48 0.0 0.0 0.00 0.00 0.00 84 1021.5
20260503011556 49 0.0 0.0 0.00 0.00 0.00 83 1021.6
20260503010553 49 0.0 0.0 0.00 0.00 0.00 83 1021.6
20260503005547 49 0.0 0.0 0.00 0.00 0.00 82 1021.6
20260503004542 50 0.0 0.0 0.00 0.00 0.00 81 1021.8
20260503003533 50 0.0 0.0 0.00 0.00 0.00 81 1021.8
20260503002531 50 0.0 0.0 0.00 0.00 0.00 80 1021.9
20260503001522 51 0.0 0.0 0.00 0.00 0.00 80 1022.0
20260503000520 51 0.0 0.0 0.00 0.00 0.00 79 1022.2
20260502235519 52 0.0 0.0 0.00 0.00 0.00 78 1022.1
20260502234609 51 0.0 0.0 0.00 0.00 0.00 79 1022.2
20260502233606 51 0.0 0.0 0.00 0.00 0.00 80 1022.1
20260502232558 51 0.0 0.0 0.00 0.00 0.00 80 1022.2
20260502231555 51 0.0 0.0 0.00 0.00 0.00 79 1022.3
20260502230547 52 0.0 0.0 0.00 0.00 0.00 79 1022.3
20260502225544 52 0.0 0.0 0.00 0.00 0.00 78 1022.3
20260502224543 53 0.0 0.0 0.00 0.00 0.00 77 1022.3
20260502223532 53 0.0 0.0 0.00 0.00 0.00 76 1022.4
20260502222530 53 0.0 0.0 0.00 0.00 0.00 75 1022.4
20260502221523 54 0.0 0.0 0.00 0.00 0.00 73 1022.4
20260502220521 55 0.0 0.0 0.00 0.00 0.00 73 1022.5
20260502215612 55 0.0 0.0 0.00 0.00 0.00 73 1022.5
20260502214608 55 0.0 0.0 0.00 0.00 0.00 73 1022.7
20260502213608 56 0.0 0.0 0.00 0.00 0.00 72 1022.6
20260502212556 56 0.0 0.0 0.00 0.00 0.00 70 1022.6
20260502211546 55 0.0 0.0 0.00 0.00 0.00 71 1022.8
20260502210543 55 0.0 0.0 0.00 0.00 0.00 72 1022.8
20260502205535 56 0.0 0.0 0.00 0.00 0.00 72 1022.9
20260502204524 57 0.0 0.0 0.00 0.00 0.00 70 1022.9
20260502203520 58 0.0 0.0 0.00 0.00 0.00 70 1023.1
20260502202519 58 0.0 0.0 0.00 0.00 0.00 70 1022.9
20260502201609 58 0.0 0.0 0.00 0.00 0.00 70 1023.0
20260502200608 59 0.0 0.0 0.00 0.00 0.00 70 1022.9
20260502195558 59 0.0 0.0 0.00 0.00 0.00 69 1023.1
20260502194557 60 0.0 0.0 0.00 0.00 0.00 68 1023.0
20260502193547 61 0.0 0.0 0.00 0.00 0.00 67 1023.0
20260502192546 62 0.0 0.0 0.00 0.00 0.00 66 1023.0
20260502191541 63 0.0 0.0 0.00 0.00 0.00 65 1023.0
20260502190533 64 0.0 0.0 0.00 0.00 0.00 62 1023.0
20260502185531 65 0.0 0.0 0.00 0.00 0.00 59 1023.1
20260502184523 66 0.0 0.0 0.00 0.00 0.00 57 1022.9
20260502183519 67 0.0 0.0 0.00 0.00 0.00 56 1022.9
20260502182611 68 0.0 0.0 0.00 0.00 0.00 53 1022.9
20260502181610 70 0.0 0.0 0.00 0.00 0.00 50 1022.9
20260502180607 71 0.0 0.0 0.00 0.00 0.00 48 1023.0